TimeEST,TemperatureF,Dew PointF,Humidity,Sea Level PressureIn,VisibilityMPH,Wind Direction,Wind SpeedMPH,Gust SpeedMPH,PrecipitationIn,Events,Conditions,WindDirDegrees,DateUTC
12:53 AM,27.0,24.1,89,30.41,10.0,Calm,Calm,-,N/A,,Clear,0,2013-03-09 05:53:00
1:53 AM,26.1,23.0,88,30.42,10.0,Calm,Calm,-,N/A,,Clear,0,2013-03-09 06:53:00
2:53 AM,26.1,23.0,88,30.40,10.0,Calm,Calm,-,N/A,,Clear,0,2013-03-09 07:53:00
3:53 AM,24.1,21.9,91,30.37,9.0,Calm,Calm,-,N/A,,Clear,0,2013-03-09 08:53:00
4:53 AM,24.1,21.9,91,30.38,10.0,Calm,Calm,-,N/A,,Clear,0,2013-03-09 09:53:00
5:53 AM,21.9,19.9,92,30.38,9.0,Calm,Calm,-,N/A,,Clear,0,2013-03-09 10:53:00
6:53 AM,21.9,19.9,92,30.38,8.0,Calm,Calm,-,N/A,,Clear,0,2013-03-09 11:53:00
7:53 AM,27.0,25.0,92,30.38,6.0,Calm,Calm,-,N/A,,Clear,0,2013-03-09 12:53:00
8:53 AM,33.1,28.0,82,30.38,10.0,SSE,4.6,-,N/A,,Clear,150,2013-03-09 13:53:00
9:53 AM,36.0,28.0,73,30.37,10.0,SSE,10.4,-,N/A,,Clear,150,2013-03-09 14:53:00
10:53 AM,37.9,28.9,70,30.35,10.0,SSE,11.5,-,N/A,,Clear,150,2013-03-09 15:53:00
11:53 AM,39.9,28.0,63,30.33,10.0,SE,8.1,18.4,N/A,,Clear,140,2013-03-09 16:53:00
12:53 PM,41.0,28.9,62,30.32,10.0,South,8.1,-,N/A,,Clear,170,2013-03-09 17:53:00
1:53 PM,41.0,28.9,62,30.26,10.0,SE,10.4,-,N/A,,Clear,140,2013-03-09 18:53:00
2:53 PM,42.1,30.0,62,30.22,10.0,SE,9.2,-,N/A,,Clear,130,2013-03-09 19:53:00
3:53 PM,42.1,30.0,62,30.20,10.0,SE,9.2,-,N/A,,Partly Cloudy,130,2013-03-09 20:53:00
4:53 PM,41.0,30.0,65,30.18,10.0,SE,11.5,-,N/A,,Clear,140,2013-03-09 21:53:00
5:53 PM,39.0,30.0,70,30.16,10.0,ESE,5.8,-,N/A,,Clear,120,2013-03-09 22:53:00
6:53 PM,37.9,28.0,68,30.15,10.0,ESE,9.2,-,N/A,,Overcast,120,2013-03-09 23:53:00
7:53 PM,37.0,28.0,70,30.13,10.0,SE,10.4,18.4,N/A,,Overcast,130,2013-03-10 00:53:00
8:53 PM,37.0,28.9,73,30.13,10.0,ESE,5.8,-,N/A,,Overcast,110,2013-03-10 01:53:00
9:53 PM,37.0,30.0,76,30.10,10.0,Variable,4.6,-,N/A,,Overcast,0,2013-03-10 02:53:00
10:53 PM,36.0,30.9,82,30.08,10.0,ESE,4.6,-,N/A,,Scattered Clouds,110,2013-03-10 03:53:00
11:53 PM,36.0,30.9,82,30.06,10.0,Calm,Calm,-,N/A,,Clear,0,2013-03-10 04:53:00